Regional Weather Roundup
Issued by NWS

Home | Current Version | Previous Version | Graphics & Text | Print | Product List | Glossary Off
Versions: 1 2 3 4 5 6 7 8 9 10 11 12 13 14 15 16 17 18 19 20 21 22 23 24 25 26 27 28 29 30 31 32 33 34 35 36 37 38 39 40 41 42 43 44 45 46 47 48 49 50

000
ASUS43 KFSD 041810
RWRSD

WEATHER ROUNDUP FOR SOUTH DAKOTA
NATIONAL WEATHER SERVICE SIOUX FALLS SD
1200 PM CST SUN DEC 04 2016

NOTE: "FAIR" INDICATES FEW OR NO CLOUDS BELOW 12,000 FEET WITH NO
SIGNIFICANT WEATHER AND/OR OBSTRUCTIONS TO VISIBILITY.


SDZ001>005-009-010-012>017-041900-
NORTHWEST AND NORTH CENTRAL SOUTH DAKOTA

CITY           SKY/WX    TMP DP  RH WIND       PRES   REMARKS
BUFFALO          N/A     39  24  55 W18       29.70F
FAITH            N/A     36  27  69 W14       29.80F
MOBRIDGE       SUNNY     34  22  61 NW7       29.78F WCI  28
$$

SDZ012>016-024>037-041>051-057-063-072>074-041900-
SOUTHWEST AND SOUTH CENTRAL SOUTH DAKOTA

CITY           SKY/WX    TMP DP  RH WIND       PRES   REMARKS
RAPID CTY ARPT SUNNY     44  17  33 SW8       29.82F
PIERRE         SUNNY     36  25  64 W8        29.83F
CUSTER         SUNNY     32  12  43 W8        29.79F WCI  25
ELLSWORTH AFB  SUNNY     43  18  36 S9        29.81F
PHILIP         SUNNY     41  26  55 W9        29.85F
PINE RIDGE     SUNNY     37  19  48 W7        29.89F
SPEARFISH      FAIR      39  18  41 W13       29.79F
WINNER         FAIR      46  26  45 W14       29.88F
$$

SDZ004>011-016>023-039-040-041900-
NORTHEAST SOUTH DAKOTA

CITY           SKY/WX    TMP DP  RH WIND       PRES   REMARKS
ABERDEEN       MOSUNNY   38  30  73 W17       29.78F
WATERTOWN      CLOUDY    35  29  78 W18       29.77F WCI  24
BROOKINGS      SUNNY     38  31  76 W15       29.79F
SISSETON         N/A     35  29  78 W16       29.74S WCI  25
$$

SDZ017-020-022-023-036>040-048>070-041900-
SOUTHEAST SOUTH DAKOTA

CITY           SKY/WX    TMP DP  RH WIND       PRES   REMARKS
SIOUX FALLS    SUNNY     41  32  70 W8        29.85F
HURON          SUNNY     41  33  73 W12       29.83F
CHAMBERLAIN    SUNNY     41  31  67 W9        29.87F
MITCHELL       SUNNY     41  32  70 W10       29.87F
YANKTON        SUNNY     43  28  56 W13       29.89F
$$

ABBREVIATIONS USED IN REMARKS
   TC - TEMPERATURE IN CELSIUS
  WCI - WIND CHILL INDEX
   HX - HEAT INDEX
  VSB - VISIBILITY




USA.gov is the U.S. government's official web portal to all federal, state and local government web resources and services.